FW6023 Weather Reports


time (UTC)temp
C
wind
direction
speed
KPH
gust
KPH
rain 1hr
cm
rain 24hr
cm
rain mn
cm
humidity
%
barometer
mb
20260503071538 13 0 0.0 0.0 0.00 0.00 0.00 69 1014.0
20260503060133 13 0 0.0 0.0 0.00 0.00 0.00 71 1013.9
20260503054629 13 0 0.0 0.0 0.00 0.00 0.00 71 1013.9
20260503053056 13 0 0.0 0.0 0.00 0.00 0.00 70 1014.0
20260503051618 13 0 0.0 0.0 0.00 0.00 0.00 70 1013.9
20260503050134 13 0 0.0 0.0 0.00 0.00 0.00 72 1013.9
20260503044539 13 0 0.0 0.0 0.00 0.00 0.00 75 1013.9
20260503043419 13 0 0.0 0.0 0.00 0.00 0.00 75 1013.8
20260503041556 13 0 0.0 0.0 0.00 0.00 0.00 76 1013.7
20260503040045 13 0 0.0 0.0 0.00 0.00 0.00 76 1013.6
20260503034701 13 0 0.0 0.0 0.00 0.00 0.00 76 1013.4
20260503033038 13 0 0.0 0.0 0.00 0.00 0.00 75 1013.3
20260503031538 14 0 0.0 0.0 0.00 0.00 0.00 74 1013.1
20260503030045 15 0 0.0 0.0 0.00 0.00 0.00 73 1013.0
20260503024607 15 0 0.0 3.2 0.00 0.00 0.00 71 1012.9
20260503023149 16 0 0.0 3.2 0.00 0.00 0.00 69 1012.9
20260503021541 17 0 0.0 3.2 0.00 0.00 0.00 64 1012.9
20260503020206 18 342 0.0 6.4 0.00 0.00 0.00 62 1013.0
20260503014704 18 0 0.0 0.0 0.00 0.00 0.00 63 1013.1
20260503013038 18 0 0.0 3.2 0.00 0.00 0.00 64 1013.4
20260503011549 18 0 0.0 0.0 0.00 0.00 0.00 65 1013.7
20260503010044 18 0 0.0 0.0 0.00 0.00 0.00 63 1013.8
20260503004605 18 0 0.0 0.0 0.00 0.00 0.00 64 1013.9
20260503003038 18 0 0.0 0.0 0.00 0.00 0.00 65 1014.0
20260503001537 17 0 0.0 3.2 0.00 0.00 0.00 69 1014.1
20260503000039 17 155 1.6 4.8 0.00 0.00 0.00 70 1014.3
20260502234548 17 157 1.6 4.8 0.00 0.00 0.00 69 1014.5
20260502233037 16 163 1.6 6.4 0.00 0.00 0.00 70 1014.6
20260502231543 16 152 3.2 8.0 0.00 0.00 0.00 71 1014.7
20260502230040 16 145 3.2 6.4 0.00 0.00 0.00 71 1014.9
20260502224535 17 156 1.6 6.4 0.00 0.00 0.00 70 1015.0
20260502223037 18 253 1.6 11.3 0.00 0.00 0.00 67 1015.1
20260502221537 18 323 3.2 11.3 0.00 0.00 0.00 71 1015.3
20260502220039 17 217 1.6 11.3 0.00 0.00 0.00 72 1015.6
20260502214544 16 325 0.0 4.8 0.00 0.00 0.00 77 1015.7
20260502213038 15 192 1.6 4.8 0.00 0.00 0.00 79 1015.9